Miscellaneous Local Product
Issued by NWS Hastings, NE

Home | Current Version | Previous Version | Graphics & Text | Print | Product List | Glossary On
Versions: 1 2 3 4 5 6 7 8 9 10 11 12 13 14 15 16 17 18 19 20 21 22 23 24 25 26 27 28 29 30 31 32 33 34 35 36 37 38 39 40 41 42 43 44 45 46 47 48 49 50
140
AXUS43 KGID 171102
MISGRI

GID CWA HOURLY WEATHER ROUNDUP
NATIONAL WEATHER SERVICE HASTINGS NE
600 AM CDT THU AUG 17 2017

NOTE: "FAIR" INDICATES FEW OR NO CLOUDS BELOW 12,000 FEET WITH NO
SIGNIFICANT WEATHER AND/OR OBSTRUCTIONS TO VISIBILITY.

...SOUTH CENTRAL NEBRASKA...

CITY           SKY/WX    TMP DP  RH WIND       PRES   REMARKS
GRAND ISLAND   CLEAR     57  56  96 W8        29.98R
HASTINGS       CLEAR     56  53  90 W6        30.01R
KEARNEY        CLEAR     57  54  89 W3        30.01R
ORD            CLEAR     52  49  89 NW5       29.96R
YORK           CLEAR     57  57 100 W8        29.96R
AURORA         CLEAR     57  57 100 W6        29.97R
LEXINGTON      CLEAR     54  52  93 W5        30.03R
HOLDREGE       CLEAR     55  53  90 W3        30.03R
HEBRON         CLEAR     60  58  95 W3        29.97R

...NEBRASKA PANHANDLE...

CITY           SKY/WX    TMP DP  RH WIND       PRES   REMARKS
CHADRON        CLEAR     50  47  89 CALM      29.99S
ALLIANCE       CLEAR     48  45  89 W6        30.05S
SCOTTSBLUFF    CLEAR     53  49  86 E8        30.06S
SIDNEY         CLEAR     54  51  90 SW10      30.10S

...WESTERN AND NORTH CENTRAL NEBRASKA...

CITY           SKY/WX    TMP DP  RH WIND       PRES   REMARKS
VALENTINE      CLEAR     53  48  83 CALM      29.99R
AINSWORTH      CLEAR     53  50  92 W6        29.99R
ONEILL         CLEAR     55  54  96 W9        29.95R
BROKEN BOW     CLEAR     57  50  77 CALM      30.00R
IMPERIAL       CLEAR     52  50  93 W8        30.07R
NORTH PLATTE   CLEAR     52  51  97 CALM      30.05R
MCCOOK         CLEAR     54  54 100 W6        30.05R

...EASTERN NEBRASKA...

CITY           SKY/WX    TMP DP  RH WIND       PRES   REMARKS
NORFOLK        CLEAR     59  55  87 W9        29.90R
SO SIOUX CITY  CLOUDY    66  62  87 NW12G18   29.82R
TEKAMAH        CLOUDY    65  60  84 W8        29.86R
COLUMBUS       CLEAR     60  57  89 W8        29.93R
ALBION         CLEAR     57  55  94 NW3       29.94R
OMAHA EPPLEY   CLOUDY    66  60  81 W8        29.86R
OFFUTT AFB     CLEAR     63  60  88 W8        29.86R
MILLARD        CLEAR     65  62  90 W6        29.87R
LINCOLN        CLEAR     64  59  83 W10       29.92R
NEBRASKA CITY  CLEAR     62  62 100 W8        29.90R
BEATRICE       CLEAR     61  60  95 W6        29.93R
FALLS CITY     CLEAR     65  61  87 W13       29.89R

...NORTHERN KANSAS...

CITY           SKY/WX    TMP DP  RH WIND       PRES   REMARKS
GOODLAND       CLEAR     55  53  93 SW7       30.12R
HILL CITY      CLEAR     58  57  97 W7        30.06R
NORTON         SUNNY     54  52  94 SW6       30.04S
PHILLIPSBURG   CLEAR     55  55 100 W7        30.04R
SMITH CENTER   FOG       54  54 100 CALM      30.03R VSB 1/2
HAYS           CLEAR     59  58  96 NW5       30.04S
RUSSELL        CLEAR     60  58  92 W7        30.02R
CONCORDIA      CLEAR     60  60 100 W8        29.98R
SALINA         CLEAR     63  60  90 CALM      29.99R
TOPEKA         CLEAR     66  66 100 W3        29.92R



USA.gov is the U.S. government's official web portal to all federal, state and local government web resources and services.